Vorticity
11 9 8 11 9 8 8 9 8 8 10 11 11 10 9 8 7 8 7 7 9 9 7 8 10 10 13 11 8 7 -11 4 -6 6 17 20 33 5 4 1 2 10 8 13 -4
9 9 10 10 9 8 8 8 9 11 12 13 12 13 12 12 10 15 11 7 11 9 9 6 6 12 9 15 13 -8 7 12 -2 22 7 15 6 21 6 4 8 1 8 20 6
13 10 9 8 7 7 8 10 12 14 12 11 11 12 14 13 14 18 16 15 8 7 8 6 7 8 10 11 -1 40 -11 12 12 9 -3 -1 19 22 16 4 11 6 13 -6 4
12 9 7 7 7 8 9 10 11 10 10 9 10 11 11 11 15 26 13 21 29 16 10 10 5 4 5 9 7 7 3 22 -21 11 29 4 -3 -11 2 21 16 7 10 12 3
9 8 7 8 7 8 9 10 12 12 11 10 14 13 12 10 10 16 3 -3 16 29 20 19 10 7 4 8 15 -6 -6 25 10 7 -10 13 -13 -2 16 -1 19 7 8 -0 -4
9 7 8 8 8 8 10 13 14 16 15 16 14 11 10 6 28 50 2 -6 4 11 10 14 15 15 14 2 12 16 3 -10 33 6 10 -3 14 -2 6 10 12 15 9 2 -2
7 7 8 8 8 9 12 11 16 12 16 13 11 12 11 25 13 21 9 26 -5 5 -0 14 9 14 12 8 25 33 -11 34 -9 18 -4 -2 -5 10 7 1 -1 17 13 4 9
7 7 8 10 10 9 10 13 14 16 14 15 18 18 11 23 30 47 34 30 22 -10 2 12 23 -11 9 20 -10 34 26 -23 33 -5 2 7 4 -7 -4 9 4 14 14 3 8
8 8 10 10 9 9 11 11 13 18 17 13 27 13 25 4 7 1 4 13 50 24 3 5 -8 17 -11 4 11 21 -3 19 -9 39 -23 14 19 -13 10 17 7 8 4 11 2
8 8 12 11 9 9 8 13 17 31 14 10 1 25 2 11 12 27 22 6 7 48 6 18 -17 14 -31 -6 9 -8 27 6 8 2 29 17 -16 32 53 0 6 13 14 13 6
8 10 11 11 8 8 12 12 11 10 9 17 16 0 6 -4 2 1 8 13 -3 14 32 28 5 -9 29 37 -3 5 -12 17 20 2 9 -6 14 20 -10 27 14 9 11 7 4
9 9 12 12 9 12 13 11 8 2 16 12 7 7 1 2 13 31 29 11 17 14 20 15 17 4 -34 35 5 -1 9 -8 24 24 7 17 22 21 2 13 -3 9 6 5 8
10 12 12 12 10 15 10 8 6 9 51 -5 5 16 6 9 32 -11 -0 0 13 13 7 19 -2 15 -9 -5 -0 19 -13 1 -17 8 27 8 14 14 11 1 53 -12 -2 13 6
11 14 13 9 14 13 12 10 6 23 22 -20 2 -3 0 14 6 8 34 24 12 8 25 25 50 15 32 -11 34 2 10 0 5 5 3 20 20 23 4 13 -9 28 -2 7 3
13 12 15 8 12 14 12 7 15 30 8 26 -9 7 24 11 13 24 24 15 14 25 11 -0 29 -13 25 15 -2 5 30 6 27 -19 11 -3 -15 7 30 12 18 -9 20 4 -3
13 15 11 10 10 13 9 7 30 26 -14 27 -2 27 10 3 17 6 17 7 11 14 16 9 10 13 -6 31 2 0 -38 34 13 12 5 12 -42 43 2 4 18 15 -7 6 8
15 13 11 9 9 9 8 13 18 12 -7 -17 6 16 5 6 15 8 34 33 3 10 16 -15 22 14 25 8 40 8 21 21 16 22 -14 66 7 -55 66 15 10 25 4 5 -1
16 11 10 11 10 10 11 16 15 -16 0 8 20 13 -2 5 11 32 26 13 -1 22 -12 17 37 25 15 10 -2 29 -12 -23 6 9 16 46 1 14 -65 50 15 13 33 18 15
14 13 19 7 12 8 11 19 5 7 1 9 30 11 -3 -2 36 17 13 36 5 13 -7 22 7 27 26 9 19 65 -0 -0 -8 19 4 14 13 30 43 -15 50 9 14 9 18
14 15 13 14 12 14 15 10 17 6 11 10 12 9 2 -11 10 20 5 5 25 44 5 18 8 27 42 20 29 -39 31 28 14 8 1 7 16 11 31 17 -11 40 18 15 16
17 16 8 8 16 13 13 9 15 11 9 17 9 10 11 -1 10 23 -22 49 -4 72 1 -4 12 41 44 18 1 9 -13 -7 15 -0 9 8 18 9 32 25 9 -16 -12 25 15
15 27 14 21 13 11 8 3 12 17 10 5 12 9 -7 9 12 31 -2 1 19 15 26 18 5 47 16 45 27 5 23 37 -12 16 12 12 15 17 7 25 30 -3 9 1 22
14 26 10 20 13 10 11 8 11 7 18 8 16 2 -0 14 29 -2 4 22 18 11 20 30 7 9 37 -0 3 25 26 -26 18 9 9 9 16 24 27 35 1 14 22 16 4
16 23 9 12 8 10 10 4 4 7 10 6 20 0 10 12 -6 -3 -12 -2 23 2 20 21 5 27 11 37 -2 -10 -9 1 14 -1 11 52 17 7 13 31 38 35 9 12 8
10 4 10 2 11 8 5 -1 4 8 3 7 0 12 12 12 25 -4 6 16 15 7 18 18 7 17 36 36 19 11 13 2 -24 15 -3 9 -7 3 5 2 -3 27 38 27 20
14 11 10 13 11 7 13 1 4 3 11 -5 6 6 17 10 -2 8 11 9 11 7 14 -1 15 11 18 28 17 11 7 13 11 -0 45 -12 -17 3 8 3 3 5 15 32 22
14 10 11 13 11 10 12 3 5 8 8 4 7 4 9 7 8 24 17 13 4 13 3 -4 21 12 12 37 19 14 10 7 8 8 10 -3 -8 3 -5 -8 1 5 2 31 31
Height
3084 3080 3075 3071 3067 3062 3057 3052 3047 3043 3039 3037 3035 3034 3032 3030 3029 3031 3034 3039 3040 3041 3043 3045 3048 3052 3054 3057 3062 3064 3065 3063 3067 3072 3077 3081 3086 3093 3094 3097 3100 3102 3106 3110 3116
3080 3075 3070 3066 3060 3054 3048 3044 3040 3036 3032 3028 3026 3024 3022 3019 3018 3024 3026 3027 3030 3033 3034 3039 3042 3045 3047 3050 3056 3056 3057 3058 3066 3071 3075 3078 3083 3087 3090 3092 3096 3099 3104 3107 3112
3076 3071 3065 3060 3054 3048 3042 3036 3032 3028 3024 3020 3018 3016 3014 3011 3010 3014 3012 3016 3020 3023 3026 3031 3035 3038 3040 3044 3047 3049 3048 3058 3062 3068 3073 3076 3078 3082 3084 3086 3092 3098 3101 3105 3109
3071 3065 3059 3054 3048 3042 3036 3030 3026 3022 3018 3013 3010 3008 3006 3004 3007 3005 3005 3006 3010 3014 3018 3023 3027 3030 3032 3035 3042 3044 3048 3053 3060 3063 3068 3073 3075 3078 3081 3083 3089 3093 3098 3103 3106
3066 3060 3055 3049 3041 3035 3029 3025 3020 3016 3011 3006 3004 3001 2998 2995 2993 3003 3003 3002 3003 3005 3010 3015 3020 3024 3026 3031 3037 3037 3042 3049 3054 3060 3063 3068 3070 3073 3076 3079 3084 3089 3093 3098 3102
3061 3056 3050 3043 3036 3030 3024 3019 3014 3009 3004 3000 2997 2994 2991 2985 2993 2994 2995 2996 2999 3000 3003 3010 3014 3019 3021 3024 3029 3033 3039 3044 3048 3054 3059 3062 3065 3068 3072 3076 3081 3085 3090 3094 3099
3056 3051 3045 3039 3031 3024 3020 3014 3008 3004 2998 2993 2990 2987 2983 2987 2981 2984 2986 2986 2988 2992 2996 3002 3006 3011 3016 3020 3025 3029 3035 3039 3041 3046 3050 3057 3059 3060 3067 3072 3077 3080 3084 3089 3095
3052 3046 3040 3033 3027 3022 3017 3010 3003 2999 2993 2987 2984 2983 2980 2981 2978 2978 2980 2981 2983 2984 2992 2995 2998 3002 3007 3014 3019 3023 3029 3032 3034 3041 3045 3051 3047 3057 3063 3068 3073 3076 3080 3085 3091
3049 3042 3036 3029 3024 3018 3011 3006 3000 2994 2988 2983 2982 2980 2979 2978 2978 2978 2978 2976 2976 2980 2987 2989 2991 2997 3003 3007 3014 3017 3017 3022 3029 3032 3040 3043 3043 3052 3058 3063 3067 3072 3076 3080 3086
3045 3038 3031 3025 3019 3012 3005 3000 2997 2992 2987 2981 2979 2980 2979 2977 2976 2974 2973 2973 2974 2975 2981 2982 2985 2991 2994 2998 2998 3007 3014 3019 3022 3028 3032 3036 3038 3046 3050 3057 3063 3067 3072 3076 3082
3042 3035 3029 3022 3015 3007 3001 2994 2990 2988 2985 2982 2980 2978 2977 2976 2974 2973 2970 2971 2972 2973 2975 2977 2978 2976 2986 2991 2997 3005 3010 3014 3019 3025 3028 3030 3036 3042 3046 3050 3056 3062 3067 3072 3078
3038 3032 3024 3018 3011 3004 2998 2992 2988 2983 2980 2980 2980 2978 2976 2972 2969 2967 2965 2966 2967 2968 2971 2974 2965 2977 2984 2989 2995 3000 3006 3011 3016 3022 3025 3027 3030 3037 3040 3044 3048 3057 3062 3067 3073
3034 3028 3020 3014 3010 3004 2998 2993 2987 2983 2981 2982 2979 2977 2975 2971 2967 2966 2966 2964 2963 2963 2965 2965 2970 2975 2979 2981 2985 2991 2999 3005 3012 3017 3021 3025 3027 3030 3034 3040 3044 3048 3057 3063 3069
3030 3024 3019 3013 3010 3003 2998 2994 2987 2982 2980 2982 2978 2976 2973 2968 2965 2962 2960 2960 2958 2960 2962 2963 2967 2971 2974 2978 2982 2986 2995 3004 3008 3014 3015 3019 3018 3021 3027 3032 3037 3041 3047 3054 3062
3029 3022 3016 3011 3007 3003 2998 2993 2987 2982 2986 2983 2979 2975 2972 2970 2965 2959 2956 2954 2954 2956 2959 2959 2960 2965 2968 2970 2982 2988 2994 3000 3006 3009 3011 3010 3014 3010 3018 3022 3027 3033 3041 3049 3057
3027 3021 3015 3012 3007 3003 2999 2993 2988 2985 2985 2981 2979 2972 2970 2966 2961 2957 2953 2952 2953 2953 2954 2956 2958 2961 2964 2970 2978 2986 2993 2999 3003 3005 3003 3002 3009 3004 3007 3004 3017 3027 3035 3042 3050
3025 3018 3013 3010 3007 3003 2998 2993 2991 2988 2989 2984 2975 2972 2968 2963 2960 2955 2951 2950 2951 2952 2950 2952 2954 2958 2961 2968 2973 2983 2992 2997 3000 2996 2992 2995 3006 3000 3000 3005 3013 3019 3027 3036 3044
3022 3017 3012 3007 3005 3000 2997 2994 2991 2990 2986 2981 2976 2972 2968 2963 2959 2954 2950 2949 2947 2947 2948 2948 2951 2952 2955 2959 2966 2972 2981 2984 2983 2987 2988 2993 2992 2990 2999 3001 3007 3015 3022 3031 3037
3020 3015 3010 3005 3001 2999 2998 2993 2993 2990 2987 2980 2976 2971 2967 2965 2963 2956 2951 2948 2947 2945 2947 2944 2944 2946 2950 2957 2964 2968 2975 2980 2980 2981 2986 2987 2985 2987 2990 2997 3001 3007 3012 3019 3027
3017 3011 3008 3004 2999 2996 2995 2992 2990 2988 2985 2982 2978 2975 2971 2964 2961 2958 2952 2948 2946 2944 2943 2942 2942 2940 2945 2954 2961 2963 2971 2978 2978 2980 2981 2985 2985 2984 2985 2993 2999 3002 3008 3013 3019
3016 3009 3005 3002 2998 2997 2994 2989 2988 2987 2984 2983 2979 2977 2973 2967 2962 2958 2955 2949 2945 2939 2941 2940 2939 2938 2942 2945 2949 2959 2965 2971 2974 2978 2978 2985 2984 2983 2983 2987 2995 2999 3004 3009 3014
3013 3007 3005 2999 2999 2996 2994 2992 2988 2985 2984 2983 2979 2977 2974 2968 2961 2959 2956 2953 2946 2943 2939 2938 2936 2934 2938 2941 2948 2955 2961 2966 2968 2974 2974 2975 2981 2980 2981 2985 2990 2995 3000 3006 3010
3013 3008 3004 3001 2999 2996 2994 2992 2988 2985 2983 2982 2979 2977 2974 2970 2964 2959 2955 2953 2948 2942 2938 2936 2934 2935 2942 2945 2948 2952 2957 2962 2965 2971 2974 2976 2980 2979 2981 2984 2988 2992 2996 3002 3008
3009 3007 3002 2999 2998 2995 2992 2991 2987 2986 2983 2981 2978 2976 2971 2968 2965 2958 2955 2951 2948 2943 2937 2934 2933 2933 2933 2933 2939 2947 2954 2960 2966 2972 2976 2976 2978 2982 2983 2984 2985 2989 2994 2999 3004
3010 3008 3002 2996 2995 2995 2991 2990 2986 2984 2984 2981 2978 2976 2971 2965 2960 2957 2955 2949 2947 2943 2938 2936 2935 2933 2931 2935 2940 2946 2954 2962 2967 2973 2974 2980 2980 2982 2984 2986 2987 2989 2991 2995 3000
3009 3006 3002 2997 2993 2993 2990 2988 2985 2983 2982 2980 2976 2974 2971 2967 2963 2956 2954 2952 2947 2944 2940 2938 2937 2935 2933 2936 2942 2948 2955 2960 2967 2972 2975 2979 2981 2983 2986 2988 2989 2990 2990 2992 2995
3006 3006 3002 3000 2992 2991 2988 2986 2983 2980 2980 2978 2974 2970 2968 2965 2960 2955 2953 2951 2948 2946 2944 2941 2940 2938 2939 2938 2943 2950 2953 2959 2965 2971 2976 2978 2983 2986 2987 2989 2991 2991 2991 2992 2994